,,Stat5,,Stat1,,Stat2,,Stat3,,Stat4,,Wind1,,Wind1,
time,status,PA1M_AVG,status,PR1M_SUM,status,RH1M_AVG,status,SR1M_AVG,status,TA1M_AVG,status,W1dAve1m,status,W1sAve1m,
2001-01-26, 00:00:00,VALID,916.674,VALID,0,VALID,97.1328,VALID,0,VALID,20.3779,VALID,94,VALID,0,
2001-01-26, 00:01:00,VALID,916.674,VALID,0,VALID,97.2294,VALID,-0.0169808,VALID,20.3806,VALID,102,VALID,0,
2001-01-26, 00:02:00,VALID,916.649,VALID,0,VALID,97.3451,VALID,-0.0169808,VALID,20.3895,VALID,107,VALID,0.143663,
2001-01-26, 00:03:00,VALID,916.638,VALID,0,VALID,97.4291,VALID,-0.0169808,VALID,20.4229,VALID,105,VALID,0.110008,
2001-01-26, 00:04:00,VALID,916.628,VALID,0,VALID,97.4316,VALID,0,VALID,20.4291,VALID,104,VALID,0.00102796,
2001-01-26, 00:05:00,VALID,916.624,VALID,0,VALID,97.4456,VALID,-0.0169808,VALID,20.4353,VALID,104,VALID,0.0873766,
2001-01-26, 00:06:00,VALID,916.616,VALID,0,VALID,97.5066,VALID,0,VALID,20.4579,VALID,103,VALID,0.172081,
2001-01-26, 00:07:00,VALID,916.601,VALID,0,VALID,97.5677,VALID,-0.0679233,VALID,20.4872,VALID,102,VALID,0.128495,
2001-01-26, 00:08:00,VALID,916.581,VALID,0,VALID,97.6198,VALID,-0.0509425,VALID,20.5298,VALID,102,VALID,0.171274,
2001-01-26, 00:09:00,VALID,916.568,VALID,0,VALID,97.5422,VALID,-0.0339617,VALID,20.5583,VALID,102,VALID,0.0713405,
2001-01-26, 00:10:00,VALID,916.54,VALID,0,VALID,97.438,VALID,-0.0509425,VALID,20.5454,VALID,102,VALID,0,
2001-01-26, 00:11:00,VALID,916.527,VALID,0,VALID,97.3935,VALID,-0.0169808,VALID,20.5551,VALID,102,VALID,0.169202,
2001-01-26, 00:12:00,VALID,916.509,VALID,0,VALID,97.3324,VALID,-0.0339617,VALID,20.5678,VALID,102,VALID,0.346554,
2001-01-26, 00:13:00,VALID,916.486,VALID,0,VALID,97.3299,VALID,-0.0169808,VALID,20.5809,VALID,96,VALID,0.385074,
2001-01-26, 00:14:00,VALID,916.461,VALID,0,VALID,97.3362,VALID,-0.0339617,VALID,20.5807,VALID,96,VALID,0.377804,
2001-01-26, 00:15:00,VALID,916.451,VALID,0,VALID,97.2294,VALID,-0.0509425,VALID,20.5939,VALID,96,VALID,0.235197,
2001-01-26, 00:16:00,VALID,916.422,VALID,0,VALID,97.1519,VALID,-0.0339617,VALID,20.5879,VALID,93,VALID,0.442508,
2001-01-26, 00:17:00,VALID,916.39,VALID,0,VALID,97.0501,VALID,-0.0339617,VALID,20.5774,VALID,87,VALID,0.183594,
2001-01-26, 00:18:00,VALID,916.37,VALID,0,VALID,96.8925,VALID,-0.0509425,VALID,20.5718,VALID,87,VALID,0.119191,
2001-01-26, 00:19:00,VALID,916.356,VALID,0,VALID,96.778,VALID,-0.0339617,VALID,20.5481,VALID,86,VALID,0,
2001-01-26, 00:20:00,VALID,916.34,VALID,0,VALID,96.8149,VALID,-0.0849042,VALID,20.5621,VALID,88,VALID,0,
2001-01-26, 00:21:00,VALID,916.344,VALID,0,VALID,96.8416,VALID,-0.0339617,VALID,20.5645,VALID,90,VALID,0,
2001-01-26, 00:22:00,VALID,916.328,VALID,0,VALID,96.8034,VALID,0,VALID,20.5742,VALID,90,VALID,0,
2001-01-26, 00:23:00,VALID,916.337,VALID,0,VALID,96.7551,VALID,-0.0509425,VALID,20.574,VALID,90,VALID,0,
2001-01-26, 00:24:00,VALID,916.356,VALID,0,VALID,96.5644,VALID,-0.0339617,VALID,20.5688,VALID,89,VALID,0,
2001-01-26, 00:25:00,VALID,916.347,VALID,0,VALID,96.4232,VALID,0,VALID,20.526,VALID,87,VALID,0,
2001-01-26, 00:26:00,VALID,916.326,VALID,0,VALID,96.5135,VALID,-0.0169808,VALID,20.5093,VALID,88,VALID,0,
2001-01-26, 00:27:00,VALID,916.285,VALID,0,VALID,96.7221,VALID,-0.0509425,VALID,20.5225,VALID,92,VALID,0,
2001-01-26, 00:28:00,VALID,916.22,VALID,0,VALID,96.7831,VALID,-0.0339617,VALID,20.5551,VALID,101,VALID,0.688902,
2001-01-26, 00:29:00,VALID,916.183,VALID,0,VALID,96.8518,VALID,0,VALID,20.5516,VALID,104,VALID,1.08655,
2001-01-26, 00:30:00,VALID,916.143,VALID,0,VALID,96.8454,VALID,0,VALID,20.5712,VALID,104,VALID,1.04988,
2001-01-26, 00:31:00,VALID,916.128,VALID,0,VALID,96.7755,VALID,-0.0339617,VALID,20.5643,VALID,98,VALID,0.891653,
2001-01-26, 00:32:00,VALID,916.135,VALID,0,VALID,96.7284,VALID,-0.0169808,VALID,20.5648,VALID,102,VALID,0.696915,
2001-01-26, 00:33:00,VALID,916.128,VALID,0,VALID,96.7055,VALID,-0.0339617,VALID,20.5645,VALID,94,VALID,0.925164,
2001-01-26, 00:34:00,VALID,916.139,VALID,0,VALID,96.6801,VALID,-0.0169808,VALID,20.5683,VALID,104,VALID,0.677684,
2001-01-26, 00:35:00,VALID,916.148,VALID,0,VALID,96.6356,VALID,-0.0169808,VALID,20.5745,VALID,103,VALID,1.03988,
2001-01-26, 00:36:00,VALID,916.165,VALID,0,VALID,96.5364,VALID,-0.0169808,VALID,20.5678,VALID,96,VALID,0.960136,
2001-01-26, 00:37:00,VALID,916.182,VALID,0,VALID,96.4131,VALID,-0.0509425,VALID,20.5618,VALID,99,VALID,0.81949,
2001-01-26, 00:38:00,VALID,916.201,VALID,0,VALID,96.3876,VALID,-0.0509425,VALID,20.5387,VALID,72,VALID,0.754607,
2001-01-26, 00:39:00,VALID,916.196,VALID,0,VALID,96.1918,VALID,-0.0169808,VALID,20.4934,VALID,64,VALID,0.95847,
2001-01-26, 00:40:00,VALID,916.176,VALID,0,VALID,96.366,VALID,0,VALID,20.4549,VALID,69,VALID,0.726162,
2001-01-26, 00:41:00,VALID,916.154,VALID,0,VALID,96.483,VALID,-0.0339617,VALID,20.4321,VALID,88,VALID,0.515831,
2001-01-26, 00:42:00,VALID,916.151,VALID,0,VALID,96.6648,VALID,0,VALID,20.435,VALID,87,VALID,0.52484,
2001-01-26, 00:43:00,VALID,916.15,VALID,0,VALID,96.7182,VALID,0,VALID,20.4455,VALID,93,VALID,0.123972,
2001-01-26, 00:44:00,VALID,916.135,VALID,0,VALID,96.7678,VALID,0,VALID,20.4614,VALID,116,VALID,0,
2001-01-26, 00:45:00,VALID,916.151,VALID,0,VALID,96.7818,VALID,0,VALID,20.4679,VALID,116,VALID,0.00123355,
2001-01-26, 00:46:00,VALID,916.157,VALID,0,VALID,96.7538,VALID,-0.0509425,VALID,20.4843,VALID,116,VALID,0,
2001-01-26, 00:47:00,VALID,916.145,VALID,0,VALID,96.7233,VALID,-0.0169808,VALID,20.4905,VALID,116,VALID,0,
2001-01-26, 00:48:00,VALID,916.16,VALID,0,VALID,96.6877,VALID,-0.0169808,VALID,20.4999,VALID,115,VALID,0.152043,
2001-01-26, 00:49:00,VALID,916.149,VALID,0,VALID,96.7399,VALID,-0.0509425,VALID,20.5263,VALID,102,VALID,0.361225,
2001-01-26, 00:50:00,VALID,916.148,VALID,0,VALID,96.7017,VALID,-0.0339617,VALID,20.5457,VALID,103,VALID,0.429287,
2001-01-26, 00:51:00,VALID,916.123,VALID,0,VALID,96.5135,VALID,-0.0509425,VALID,20.533,VALID,100,VALID,0.676398,
2001-01-26, 00:52:00,VALID,916.117,VALID,0,VALID,96.614,VALID,-0.0679233,VALID,20.5422,VALID,103,VALID,0.982772,
2001-01-26, 00:53:00,VALID,916.097,VALID,0,VALID,96.6559,VALID,-0.0509425,VALID,20.5519,VALID,93,VALID,0.757401,
2001-01-26, 00:54:00,VALID,916.071,VALID,0,VALID,96.5936,VALID,-0.0169808,VALID,20.5479,VALID,101,VALID,0.830929,
2001-01-26, 00:55:00,VALID,916.065,VALID,0,VALID,96.5657,VALID,-0.0509425,VALID,20.5648,VALID,104,VALID,0.608347,
2001-01-26, 00:56:00,VALID,916.051,VALID,0,VALID,96.511,VALID,-0.0169808,VALID,20.5548,VALID,102,VALID,0.288061,
2001-01-26, 00:57:00,VALID,916.044,VALID,0,VALID,96.5173,VALID,-0.0679233,VALID,20.5618,VALID,101,VALID,0.453331,
2001-01-26, 00:58:00,VALID,916.023,VALID,0,VALID,96.6559,VALID,-0.0849042,VALID,20.5777,VALID,98,VALID,0.401042,
2001-01-26, 00:59:00,VALID,916.009,VALID,0,VALID,96.8022,VALID,-0.0169808,VALID,20.6036,VALID,96,VALID,0.647615,
2001-01-26, 01:00:00,VALID,915.985,VALID,0,VALID,96.6089,VALID,-0.0339617,VALID,20.5904,VALID,79,VALID,0.674279,
2001-01-26, 01:01:00,VALID,915.965,VALID,0,VALID,96.5313,VALID,-0.0509425,VALID,20.5554,VALID,89,VALID,0.929893,
2001-01-26, 01:02:00,VALID,915.918,VALID,0,VALID,96.7869,VALID,-0.0169808,VALID,20.5521,VALID,84,VALID,0.6248,
2001-01-26, 01:03:00,VALID,915.884,VALID,0,VALID,96.9649,VALID,0,VALID,20.5454,VALID,97,VALID,0.689762,
2001-01-26, 01:04:00,VALID,915.855,VALID,0,VALID,97.0654,VALID,-0.0849042,VALID,20.5427,VALID,94,VALID,0.546875,
2001-01-26, 01:05:00,VALID,915.811,VALID,0,VALID,97.0883,VALID,-0.0509425,VALID,20.5198,VALID,95,VALID,1.02796,
2001-01-26, 01:06:00,VALID,915.778,VALID,0,VALID,97.2142,VALID,-0.0339617,VALID,20.4969,VALID,90,VALID,0.879006,
2001-01-26, 01:07:00,VALID,915.742,VALID,0,VALID,97.4647,VALID,-0.0339617,VALID,20.4999,VALID,104,VALID,0.921258,
2001-01-26, 01:08:00,VALID,915.717,VALID,0,VALID,97.5575,VALID,-0.0169808,VALID,20.5034,VALID,104,VALID,0.649038,
2001-01-26, 01:09:00,VALID,915.708,VALID,0,VALID,97.6109,VALID,-0.0169808,VALID,20.5064,VALID,105,VALID,0.261308,
2001-01-26, 01:10:00,VALID,915.703,VALID,0,VALID,97.6592,VALID,-0.0509425,VALID,20.5109,VALID,105,VALID,0.698317,
2001-01-26, 01:11:00,VALID,915.711,VALID,0,VALID,97.7304,VALID,-0.0339617,VALID,20.4999,VALID,96,VALID,1.0294,
2001-01-26, 01:12:00,VALID,915.7,VALID,0,VALID,97.8093,VALID,-0.0339617,VALID,20.5101,VALID,95,VALID,1.21775,
2001-01-26, 01:13:00,VALID,915.694,VALID,0,VALID,97.8233,VALID,0,VALID,20.5133,VALID,101,VALID,1.11328,
2001-01-26, 01:14:00,VALID,915.705,VALID,0,VALID,97.85,VALID,0,VALID,20.5071,VALID,103,VALID,1.15284,
2001-01-26, 01:15:00,VALID,915.703,VALID,0,VALID,97.9288,VALID,0,VALID,20.5064,VALID,105,VALID,0.833265,
2001-01-26, 01:16:00,VALID,915.705,VALID,0,VALID,97.9174,VALID,-0.0169808,VALID,20.5069,VALID,95,VALID,0.897837,
2001-01-26, 01:17:00,VALID,915.712,VALID,0,VALID,97.9517,VALID,0,VALID,20.5037,VALID,59,VALID,0.105469,
2001-01-26, 01:18:00,VALID,915.703,VALID,0,VALID,97.7991,VALID,-0.0339617,VALID,20.442,VALID,103,VALID,0,
2001-01-26, 01:19:00,VALID,915.701,VALID,0,VALID,97.9021,VALID,-0.0169808,VALID,20.4525,VALID,88,VALID,0,
2001-01-26, 01:20:00,VALID,915.714,VALID,0,VALID,97.9631,VALID,-0.0339617,VALID,20.4318,VALID,103,VALID,0.0180288,
2001-01-26, 01:21:00,VALID,915.712,VALID,0,VALID,98.0038,VALID,0.0169808,VALID,20.4353,VALID,99,VALID,0.50884,
2001-01-26, 01:22:00,VALID,915.705,VALID,0,VALID,98.089,VALID,0.0849042,VALID,20.4397,VALID,101,VALID,0.373998,
2001-01-26, 01:23:00,VALID,915.713,VALID,0,VALID,98.0712,VALID,0.0679233,VALID,20.444,VALID,112,VALID,0.533923,
2001-01-26, 01:24:00,VALID,915.71,VALID,0,VALID,98.0547,VALID,0.0679233,VALID,20.4275,VALID,112,VALID,0.291266,
2001-01-26, 01:25:00,VALID,915.707,VALID,0,VALID,98.0928,VALID,0.0849042,VALID,20.4176,VALID,112,VALID,0.011102,
2001-01-26, 01:26:00,VALID,915.7,VALID,0,VALID,98.1844,VALID,0.101885,VALID,20.4531,VALID,114,VALID,0,
2001-01-26, 01:27:00,VALID,915.698,VALID,0,VALID,98.1412,VALID,0.0679233,VALID,20.4434,VALID,263,VALID,0.232525,
2001-01-26, 01:28:00,VALID,915.685,VALID,0,VALID,98.1145,VALID,0.0679233,VALID,20.431,VALID,92,VALID,0.599359,
2001-01-26, 01:29:00,VALID,915.677,VALID,0,VALID,98.1094,VALID,0.0849042,VALID,20.4111,VALID,101,VALID,0.266859,
2001-01-26, 01:30:00,VALID,915.663,VALID,0,VALID,98.1666,VALID,0.0849042,VALID,20.4238,VALID,125,VALID,0,
2001-01-26, 01:31:00,VALID,915.652,VALID,0,VALID,98.2022,VALID,0.0679233,VALID,20.4412,VALID,114,VALID,0,
2001-01-26, 01:32:00,VALID,915.643,VALID,0,VALID,98.1857,VALID,0.101885,VALID,20.4238,VALID,90,VALID,0,
2001-01-26, 01:33:00,VALID,915.63,VALID,0,VALID,98.2543,VALID,0.101885,VALID,20.4367,VALID,88,VALID,0,
2001-01-26, 01:34:00,VALID,915.625,VALID,0,VALID,98.276,VALID,0.101885,VALID,20.4241,VALID,93,VALID,0,
2001-01-26, 01:35:00,VALID,915.606,VALID,0,VALID,98.2709,VALID,0.101885,VALID,20.4278,VALID,93,VALID,0,
2001-01-26, 01:36:00,VALID,915.597,VALID,0,VALID,98.1577,VALID,0.0509425,VALID,20.3769,VALID,353,VALID,0,
2001-01-26, 01:37:00,VALID,915.579,VALID,0,VALID,98.1895,VALID,-0.0339617,VALID,20.3776,VALID,308,VALID,0,
2001-01-26, 01:38:00,VALID,915.561,VALID,0,VALID,98.2531,VALID,-0.0339617,VALID,20.3973,VALID,77,VALID,0,
2001-01-26, 01:39:00,VALID,915.526,VALID,0,VALID,98.3205,VALID,-0.0169808,VALID,20.4127,VALID,101,VALID,0.285979,
2001-01-26, 01:40:00,VALID,915.5,VALID,0,VALID,98.3268,VALID,0,VALID,20.4164,VALID,93,VALID,0.799679,
2001-01-26, 01:41:00,VALID,915.477,VALID,0,VALID,98.3128,VALID,-0.0169808,VALID,20.4067,VALID,88,VALID,0.81435,
2001-01-26, 01:42:00,VALID,915.461,VALID,0,VALID,98.3726,VALID,-0.0339617,VALID,20.4194,VALID,104,VALID,0.494591,
2001-01-26, 01:43:00,VALID,915.46,VALID,0,VALID,98.4146,VALID,-0.0339617,VALID,20.4423,VALID,98,VALID,0.348479,
2001-01-26, 01:44:00,VALID,915.463,VALID,0,VALID,98.3751,VALID,-0.0169808,VALID,20.4164,VALID,95,VALID,0,
2001-01-26, 01:45:00,VALID,915.478,VALID,0,VALID,98.3077,VALID,-0.0509425,VALID,20.3809,VALID,92,VALID,0,
2001-01-26, 01:46:00,VALID,915.461,VALID,0,VALID,98.3294,VALID,-0.0169808,VALID,20.3709,VALID,86,VALID,0,
2001-01-26, 01:47:00,VALID,915.474,VALID,0,VALID,98.3408,VALID,-0.0169808,VALID,20.3846,VALID,107,VALID,0.453947,
2001-01-26, 01:48:00,VALID,915.465,VALID,0,VALID,98.2404,VALID,-0.0679233,VALID,20.3359,VALID,99,VALID,1.36599,
2001-01-26, 01:49:00,VALID,915.465,VALID,0,VALID,98.2976,VALID,-0.0169808,VALID,20.3292,VALID,95,VALID,0.873766,
2001-01-26, 01:50:00,VALID,915.481,VALID,0,VALID,98.3306,VALID,-0.0169808,VALID,20.3155,VALID,104,VALID,1.10236,
2001-01-26, 01:51:00,VALID,915.488,VALID,0,VALID,98.3395,VALID,0,VALID,20.3222,VALID,99,VALID,1.19716,
2001-01-26, 01:52:00,VALID,915.508,VALID,0,VALID,98.3357,VALID,0,VALID,20.3235,VALID,94,VALID,1.11098,
2001-01-26, 01:53:00,VALID,915.517,VALID,0,VALID,98.3077,VALID,0,VALID,20.2999,VALID,105,VALID,0.9706,
2001-01-26, 01:54:00,VALID,915.51,VALID,0,VALID,98.3357,VALID,0,VALID,20.2899,VALID,102,VALID,1.32011,
2001-01-26, 01:55:00,VALID,915.479,VALID,0,VALID,98.3535,VALID,0,VALID,20.3001,VALID,96,VALID,1.17722,
2001-01-26, 01:56:00,VALID,915.467,VALID,0,VALID,98.281,VALID,0,VALID,20.271,VALID,74,VALID,1.27264,
2001-01-26, 01:57:00,VALID,915.431,VALID,0,VALID,98.2264,VALID,-0.0169808,VALID,20.2161,VALID,94,VALID,1.14042,
2001-01-26, 01:58:00,VALID,915.42,VALID,0,VALID,98.2251,VALID,-0.0169808,VALID,20.2094,VALID,44,VALID,0.376402,
2001-01-26, 01:59:00,VALID,915.391,VALID,0,VALID,98.2721,VALID,-0.0169808,VALID,20.2032,VALID,110,VALID,0.55736,
2001-01-26, 02:00:00,VALID,915.352,VALID,0,VALID,98.309,VALID,0,VALID,20.2164,VALID,109,VALID,0.63762,
2001-01-26, 02:01:00,VALID,915.341,VALID,0,VALID,98.3294,VALID,0,VALID,20.2169,VALID,98,VALID,0.869038,
2001-01-26, 02:02:00,VALID,915.319,VALID,0,VALID,98.3548,VALID,-0.0169808,VALID,20.2062,VALID,114,VALID,0.855168,
2001-01-26, 02:03:00,VALID,915.307,VALID,0,VALID,98.3917,VALID,-0.0339617,VALID,20.2161,VALID,103,VALID,0.641036,
2001-01-26, 02:04:00,VALID,915.321,VALID,0,VALID,98.4133,VALID,-0.0509425,VALID,20.2298,VALID,100,VALID,0.754207,
2001-01-26, 02:05:00,VALID,915.344,VALID,0,VALID,98.4629,VALID,-0.0679233,VALID,20.2554,VALID,96,VALID,0.803248,
2001-01-26, 02:06:00,VALID,915.345,VALID,0,VALID,98.4502,VALID,-0.0169808,VALID,20.2392,VALID,92,VALID,0.701522,
2001-01-26, 02:07:00,VALID,915.345,VALID,0,VALID,98.4616,VALID,0,VALID,20.2489,VALID,114,VALID,0.421464,
2001-01-26, 02:08:00,VALID,915.323,VALID,0,VALID,98.4578,VALID,0,VALID,20.2516,VALID,106,VALID,0.743189,
2001-01-26, 02:09:00,VALID,915.297,VALID,0,VALID,98.4603,VALID,0,VALID,20.2549,VALID,99,VALID,0.790296,
2001-01-26, 02:10:00,VALID,915.258,VALID,0,VALID,98.4184,VALID,0.0169808,VALID,20.2352,VALID,78,VALID,1.19371,
2001-01-26, 02:11:00,VALID,915.209,VALID,0,VALID,98.2073,VALID,-0.0339617,VALID,20.1348,VALID,77,VALID,1.00267,
2001-01-26, 02:12:00,VALID,915.174,VALID,0,VALID,98.2416,VALID,0,VALID,20.1453,VALID,96,VALID,1.07212,
2001-01-26, 02:13:00,VALID,915.148,VALID,0,VALID,98.3281,VALID,-0.0169808,VALID,20.1483,VALID,101,VALID,0.676192,
2001-01-26, 02:14:00,VALID,915.153,VALID,0,VALID,98.3192,VALID,0,VALID,20.1316,VALID,99,VALID,0.555288,
2001-01-26, 02:15:00,VALID,915.149,VALID,0,VALID,98.3344,VALID,-0.0169808,VALID,20.1351,VALID,104,VALID,0.736637,
2001-01-26, 02:16:00,VALID,915.161,VALID,0,VALID,98.3968,VALID,0,VALID,20.1547,VALID,104,VALID,0.485176,
2001-01-26, 02:17:00,VALID,915.162,VALID,0,VALID,98.4362,VALID,0,VALID,20.1771,VALID,102,VALID,0.125411,
2001-01-26, 02:18:00,VALID,915.138,VALID,0,VALID,98.379,VALID,0,VALID,20.155,VALID,70,VALID,0.147035,
2001-01-26, 02:19:00,VALID,915.12,VALID,0,VALID,98.3256,VALID,0,VALID,20.1256,VALID,328,VALID,0.0217928,
2001-01-26, 02:20:00,VALID,915.093,VALID,0,VALID,98.2823,VALID,0,VALID,20.103,VALID,346,VALID,0,
2001-01-26, 02:21:00,VALID,915.069,VALID,0,VALID,98.295,VALID,0,VALID,20.1165,VALID,70,VALID,0.234169,
2001-01-26, 02:22:00,VALID,915.059,VALID,0,VALID,98.2671,VALID,0,VALID,20.1035,VALID,97,VALID,0.379006,
2001-01-26, 02:23:00,VALID,915.046,VALID,0,VALID,98.2925,VALID,-0.0169808,VALID,20.1162,VALID,102,VALID,0.398232,
2001-01-26, 02:24:00,VALID,915.053,VALID,0,VALID,98.3306,VALID,0,VALID,20.1256,VALID,122,VALID,0.00901442,
2001-01-26, 02:25:00,VALID,915.052,VALID,0,VALID,98.3599,VALID,0.0169808,VALID,20.1448,VALID,101,VALID,0.387952,
2001-01-26, 02:26:00,VALID,915.06,VALID,0,VALID,98.3599,VALID,0,VALID,20.1448,VALID,102,VALID,0.361579,
2001-01-26, 02:27:00,VALID,915.068,VALID,0,VALID,98.379,VALID,0.0169808,VALID,20.1778,VALID,110,VALID,0.373355,
2001-01-26, 02:28:00,VALID,915.054,VALID,0,VALID,98.3637,VALID,0,VALID,20.1647,VALID,86,VALID,0.191907,
2001-01-26, 02:29:00,VALID,915.033,VALID,0,VALID,98.3319,VALID,0,VALID,20.1517,VALID,98,VALID,0.211965,
2001-01-26, 02:30:00,VALID,914.997,VALID,0,VALID,98.3243,VALID,0,VALID,20.1421,VALID,95,VALID,0.771635,
2001-01-26, 02:31:00,VALID,914.962,VALID,0,VALID,98.3039,VALID,0,VALID,20.1157,VALID,101,VALID,0.686678,
2001-01-26, 02:32:00,VALID,914.926,VALID,0,VALID,98.309,VALID,0,VALID,20.1388,VALID,92,VALID,0.576723,
2001-01-26, 02:33:00,VALID,914.897,VALID,0,VALID,98.2607,VALID,0,VALID,20.1162,VALID,103,VALID,0.668586,
2001-01-26, 02:34:00,VALID,914.906,VALID,0,VALID,98.2048,VALID,0,VALID,20.0836,VALID,96,VALID,0.504607,
2001-01-26, 02:35:00,VALID,914.889,VALID,0,VALID,98.1806,VALID,0,VALID,20.0844,VALID,93,VALID,0.0923109,
2001-01-26, 02:36:00,VALID,914.888,VALID,0,VALID,98.2149,VALID,0,VALID,20.0804,VALID,94,VALID,0.0498798,
2001-01-26, 02:37:00,VALID,914.883,VALID,0,VALID,98.2187,VALID,0,VALID,20.0777,VALID,94,VALID,0.0314556,
2001-01-26, 02:38:00,VALID,914.856,VALID,0,VALID,98.192,VALID,-0.0339617,VALID,20.0707,VALID,94,VALID,0.0236378,
2001-01-26, 02:39:00,VALID,914.833,VALID,0,VALID,98.1946,VALID,0,VALID,20.0779,VALID,94,VALID,0,
2001-01-26, 02:40:00,VALID,914.816,VALID,0,VALID,98.1501,VALID,0,VALID,20.0608,VALID,94,VALID,0,
2001-01-26, 02:41:00,VALID,914.784,VALID,0,VALID,98.1106,VALID,-0.0169808,VALID,20.0489,VALID,94,VALID,0,
2001-01-26, 02:42:00,VALID,914.776,VALID,0,VALID,98.0674,VALID,0.0169808,VALID,20.0422,VALID,94,VALID,0,
2001-01-26, 02:43:00,VALID,914.775,VALID,0,VALID,98.0789,VALID,0.0169808,VALID,20.0451,VALID,94,VALID,0,
2001-01-26, 02:44:00,VALID,914.763,VALID,0,VALID,98.0979,VALID,0,VALID,20.0516,VALID,94,VALID,0,
2001-01-26, 02:45:00,VALID,914.742,VALID,0,VALID,98.1259,VALID,-0.0169808,VALID,20.071,VALID,94,VALID,0,
2001-01-26, 02:46:00,VALID,914.731,VALID,0,VALID,98.0687,VALID,0,VALID,20.0551,VALID,94,VALID,0,
2001-01-26, 02:47:00,VALID,914.703,VALID,0,VALID,98.0191,VALID,0,VALID,20.0252,VALID,93,VALID,0.0353618,
2001-01-26, 02:48:00,VALID,914.671,VALID,0,VALID,97.9949,VALID,0,VALID,20.0156,VALID,355,VALID,0.223758,
2001-01-26, 02:49:00,VALID,914.647,VALID,0,VALID,98.0979,VALID,-0.0169808,VALID,20.0551,VALID,98,VALID,0.326686,
2001-01-26, 02:50:00,VALID,914.622,VALID,0,VALID,98.173,VALID,0,VALID,20.0904,VALID,100,VALID,0.134615,
2001-01-26, 02:51:00,VALID,914.6,VALID,0,VALID,98.1806,VALID,0.0169808,VALID,20.1063,VALID,100,VALID,0,
2001-01-26, 02:52:00,VALID,914.576,VALID,0,VALID,98.1145,VALID,0,VALID,20.0874,VALID,100,VALID,0,
2001-01-26, 02:53:00,VALID,914.573,VALID,0,VALID,98.1208,VALID,0.0169808,VALID,20.0772,VALID,100,VALID,0,
2001-01-26, 02:54:00,VALID,914.56,VALID,0,VALID,98.1412,VALID,-0.0169808,VALID,20.1038,VALID,100,VALID,0,
2001-01-26, 02:55:00,VALID,914.55,VALID,0,VALID,98.1005,VALID,0,VALID,20.1035,VALID,100,VALID,0,
2001-01-26, 02:56:00,VALID,914.539,VALID,0,VALID,98.014,VALID,-0.0169808,VALID,20.0707,VALID,100,VALID,0,
2001-01-26, 02:57:00,VALID,914.527,VALID,0,VALID,97.9797,VALID,-0.0169808,VALID,20.0645,VALID,100,VALID,0,
2001-01-26, 02:58:00,VALID,914.519,VALID,0,VALID,97.9581,VALID,0,VALID,20.0546,VALID,100,VALID,0,
2001-01-26, 02:59:00,VALID,914.514,VALID,0,VALID,97.9937,VALID,0.0169808,VALID,20.0511,VALID,100,VALID,0,
2001-01-26, 03:00:00,VALID,914.505,VALID,0,VALID,98.0293,VALID,0,VALID,20.0543,VALID,100,VALID,0,
2001-01-26, 03:01:00,VALID,914.497,VALID,0,VALID,98.0471,VALID,0,VALID,20.0874,VALID,111,VALID,0,
2001-01-26, 03:02:00,VALID,914.504,VALID,0,VALID,98.0738,VALID,0,VALID,20.0779,VALID,117,VALID,0.213542,
2001-01-26, 03:03:00,VALID,914.499,VALID,0,VALID,98.1831,VALID,-0.0169808,VALID,20.113,VALID,111,VALID,0.487253,
2001-01-26, 03:04:00,VALID,914.478,VALID,0,VALID,98.2772,VALID,0,VALID,20.1582,VALID,104,VALID,0.2502,
2001-01-26, 03:05:00,VALID,914.472,VALID,0,VALID,98.3014,VALID,0,VALID,20.1609,VALID,97,VALID,0,
2001-01-26, 03:06:00,VALID,914.464,VALID,0,VALID,98.2569,VALID,0,VALID,20.1388,VALID,52,VALID,0,
2001-01-26, 03:07:00,VALID,914.435,VALID,0,VALID,98.2035,VALID,-0.0169808,VALID,20.1065,VALID,50,VALID,0,
2001-01-26, 03:08:00,VALID,914.426,VALID,0,VALID,98.2454,VALID,0.0169808,VALID,20.1132,VALID,50,VALID,0,
2001-01-26, 03:09:00,VALID,914.414,VALID,0,VALID,98.2149,VALID,0,VALID,20.1035,VALID,50,VALID,0,
2001-01-26, 03:10:00,VALID,914.406,VALID,0,VALID,98.192,VALID,0,VALID,20.0802,VALID,50,VALID,0,
2001-01-26, 03:11:00,VALID,914.419,VALID,0,VALID,98.2747,VALID,0,VALID,20.1165,VALID,50,VALID,0,
2001-01-26, 03:12:00,VALID,914.426,VALID,0,VALID,98.3039,VALID,0,VALID,20.1199,VALID,50,VALID,0,
2001-01-26, 03:13:00,VALID,914.427,VALID,0,VALID,98.3637,VALID,0,VALID,20.1232,VALID,50,VALID,0,
2001-01-26, 03:14:00,VALID,914.42,VALID,0,VALID,98.3751,VALID,0,VALID,20.1319,VALID,50,VALID,0,
2001-01-26, 03:15:00,VALID,914.412,VALID,0,VALID,98.398,VALID,0,VALID,20.1418,VALID,50,VALID,0,
2001-01-26, 03:16:00,VALID,914.423,VALID,0,VALID,98.4069,VALID,0,VALID,20.1585,VALID,50,VALID,0,
2001-01-26, 03:17:00,VALID,914.397,VALID,0,VALID,98.3726,VALID,0.0169808,VALID,20.1326,VALID,50,VALID,0,
2001-01-26, 03:18:00,VALID,914.393,VALID,0,VALID,98.3319,VALID,0,VALID,20.113,VALID,50,VALID,0,
2001-01-26, 03:19:00,VALID,914.378,VALID,0,VALID,98.3408,VALID,0.0169808,VALID,20.1199,VALID,6,VALID,0.0534539,
2001-01-26, 03:20:00,VALID,914.373,VALID,0,VALID,98.2696,VALID,0.0169808,VALID,20.0844,VALID,292,VALID,0.368389,
2001-01-26, 03:21:00,VALID,914.378,VALID,0,VALID,98.234,VALID,0,VALID,20.0486,VALID,292,VALID,0.437294,
2001-01-26, 03:22:00,VALID,914.363,VALID,0,VALID,98.2225,VALID,0,VALID,20.0252,VALID,291,VALID,0.263021,
2001-01-26, 03:23:00,VALID,914.353,VALID,0,VALID,98.2289,VALID,0,VALID,20.0161,VALID,293,VALID,0.160979,
2001-01-26, 03:24:00,VALID,914.344,VALID,0,VALID,98.2073,VALID,-0.0169808,VALID,19.9937,VALID,296,VALID,0.0310497,
2001-01-26, 03:25:00,VALID,914.325,VALID,0,VALID,98.2556,VALID,0,VALID,19.9902,VALID,296,VALID,0,
2001-01-26, 03:26:00,VALID,914.321,VALID,0,VALID,98.3103,VALID,0,VALID,20.0036,VALID,296,VALID,0.0146234,
2001-01-26, 03:27:00,VALID,914.319,VALID,0,VALID,98.2594,VALID,0,VALID,19.9778,VALID,296,VALID,0,
2001-01-26, 03:28:00,VALID,914.317,VALID,0,VALID,98.1971,VALID,0,VALID,19.9485,VALID,296,VALID,0,
2001-01-26, 03:29:00,VALID,914.32,VALID,0,VALID,98.1755,VALID,0,VALID,19.9485,VALID,296,VALID,0,
2001-01-26, 03:30:00,VALID,914.309,VALID,0,VALID,98.1857,VALID,0,VALID,19.9609,VALID,296,VALID,0,
2001-01-26, 03:31:00,VALID,914.315,VALID,0,VALID,98.1933,VALID,0.0169808,VALID,19.9805,VALID,296,VALID,0,
2001-01-26, 03:32:00,VALID,914.322,VALID,0,VALID,98.1806,VALID,0,VALID,19.9932,VALID,296,VALID,0,
2001-01-26, 03:33:00,VALID,914.319,VALID,0,VALID,98.173,VALID,-0.0169808,VALID,20.0061,VALID,295,VALID,0,
2001-01-26, 03:34:00,VALID,914.317,VALID,0,VALID,98.2086,VALID,-0.0169808,VALID,20.0387,VALID,232,VALID,0.067508,
2001-01-26, 03:35:00,VALID,914.321,VALID,0,VALID,98.2785,VALID,0,VALID,20.0742,VALID,131,VALID,0.470806,
2001-01-26, 03:36:00,VALID,914.324,VALID,0,VALID,98.3243,VALID,-0.0169808,VALID,20.1097,VALID,120,VALID,0.511619,
2001-01-26, 03:37:00,VALID,914.336,VALID,0,VALID,98.3077,VALID,-0.0849042,VALID,20.1304,VALID,110,VALID,0.539063,
2001-01-26, 03:38:00,VALID,914.353,VALID,0,VALID,98.2989,VALID,-0.0849042,VALID,20.157,VALID,106,VALID,0.458934,
2001-01-26, 03:39:00,VALID,914.381,VALID,0,VALID,98.2836,VALID,-0.101885,VALID,20.16,VALID,106,VALID,0.408512,